Estación Meteorológica Peña el Pijo (Robertgarden) [ 07/11/20 23:01:16 CEST ]

Fecha Hora Presion(HPa) Temp (°C) Humedad % Rocio (°C) Viento ( m/s) Direccion Lluvia 1Hora(mm) Lluvia 24H(mm) LLuvia Total(mm)
2020-Apr-30 01:09:38 1009.800 - - - - W     39.88
2020-Apr-30 02:09:04 1009.600 - - - - W     39.88
2020-Apr-30 03:08:53 1009.100 - - - - W     39.88
2020-Apr-30 04:09:03 1008.700 - - - - W     39.88
2020-Apr-30 05:09:07 1008.100 - - - - W     39.88
2020-Apr-30 06:09:08 1007.900 - - - - W     39.88
2020-Apr-30 07:10:33 1008.000 - - - - W     39.88
2020-Apr-30 08:11:06 1008.300 - - - - W     39.88
2020-Apr-30 09:10:33 1008.500 - - - - W     39.88
2020-Apr-30 10:10:35 1009.100 - - - - W     39.88
2020-Apr-30 11:09:31 1009.400 - - - - W     39.88
2020-Apr-30 12:09:27 1009.300 - - - - W     39.88
2020-Apr-30 13:09:07 1009.300 - - - - W     39.88
2020-Apr-30 14:08:59 1009.800 - - - - W     39.88
2020-Apr-30 15:08:49 1009.700 - - - - W     39.88
2020-Apr-30 16:09:23 1009.200 - - - - W     39.88
2020-Apr-30 17:09:42 1009.000 - - - - W     39.88
2020-Apr-30 18:09:35 1008.800 - - - - W     39.88
2020-Apr-30 19:09:10 1009.200 - - - - W     39.88
2020-Apr-30 20:09:34 1009.000 - - - - W     39.88
2020-Apr-30 21:09:36 1009.300 - - - - W     39.88
2020-Apr-30 22:09:08 1010.400 - - - - W     39.88
2020-Apr-30 23:09:14 1011.000 - - - - W     39.88

Temperatura Máxima:    Temperatura Mínima:
Presión Máxima:1011.000 Hpa    Presión Mínima:1007.900 Hpa


Volver